This is the latest recevied weather packets stored in our database for station/object F5LKO-13. If no packets are shown the sender has not sent any weather packets the latest 1 day(s).
| Time | Temp. | Humidity | Pressure | Rain* | Wind** | Luminosity | Snow |
|---|---|---|---|---|---|---|---|
| 1778053609 | 14.44° C | 99% | 1014 hPa | 2.29 mm | - | 0 W/m² | - |
| 1778053303 | 15° C | 99% | 1013.8 hPa | 1.52 mm | - | 0 W/m² | - |
| 1778053006 | 16.11° C | 99% | 1013.7 hPa | 0 mm | - | 0 W/m² | - |
| 1778052691 | 16.67° C | 99% | 1013.6 hPa | 0 mm | - | 3 W/m² | - |
| 1778052385 | 15.56° C | 99% | 1013.7 hPa | 0 mm | - | 12 W/m² | - |
| 1778051772 | 14.44° C | 99% | 1013.7 hPa | 0 mm | - | 2 W/m² | - |
| 1778051466 | 14.44° C | 99% | 1013.7 hPa | 0 mm | - | 5 W/m² | - |
| 1778050854 | 12.78° C | 99% | 1013.7 hPa | 0 mm | - | 2 W/m² | - |
| 1778050547 | 12.78° C | 99% | 1013.7 hPa | 0 mm | - | 0 W/m² | - |
| 1778049630 | 13.33° C | 99% | 1013.5 hPa | 0 mm | - | 0 W/m² | - |
| 1778049332 | 12.78° C | 99% | 1013.5 hPa | 0 mm | - | 0 W/m² | - |
| 1778049017 | 12.78° C | 99% | 1013.5 hPa | 0 mm | - | 1 W/m² | - |
| 1778048711 | 12.78° C | 99% | 1013.5 hPa | 0 mm | - | 0 W/m² | - |
| 1778048405 | 13.33° C | 99% | 1013.4 hPa | 0 mm | - | 0 W/m² | - |
| 1778048099 | 12.22° C | 99% | 1013.5 hPa | 0 mm | - | 0 W/m² | - |
| 1778047793 | 11.67° C | 99% | 1013.4 hPa | 0 mm | - | 1 W/m² | - |
| 1778047495 | 11.67° C | 99% | 1013.5 hPa | 0 mm | - | 0 W/m² | - |
| 1778047180 | 11.67° C | 99% | 1013.4 hPa | 0 mm | - | 0 W/m² | - |
| 1778046873 | 12.22° C | 99% | 1013.5 hPa | 0 mm | - | 0 W/m² | - |
| 1778046262 | 14.44° C | 99% | 1013.4 hPa | 0 mm | - | 0 W/m² | - |
| 1778045658 | 10.56° C | 99% | 1013.4 hPa | 0 mm | - | 0 W/m² | - |
| 1778044732 | 10° C | 99% | 1013.2 hPa | 0 mm | - | 0 W/m² | - |
| 1778044426 | 10° C | 99% | 1013.2 hPa | 0 mm | - | 0 W/m² | - |
| 1778044120 | 10° C | 99% | 1013.1 hPa | 0 mm | - | 0 W/m² | - |
| 1778043823 | 10° C | 99% | 1013.1 hPa | 0 mm | - | 0 W/m² | - |
* Rain latest hour (hover to see other rain measurements)
** Current wind speed in m/s (hover to see current wind gust speed)